Showing default

IRIDIUM 112, 41925

Orbit data source: Space-Track

IRIDIUM 112, 41925 is a payload satellite owned by Iridium (US) in LEO that was launched on Sat, 14 Jan 2017 UTC via an FALCON 9 launch vehicle from the Air Force Western Test Range (AFWTR). Payloads include a variety of satellites, spacecraft, and rockets equipped with specific instruments for various scientific and technological missions. These include communications satellites like Starlink; space stations such as the ISS; scientific satellites like the Hubble; Earth observation satellites from companies like Planet Labs, Umbra, and HawkEye 360; GPS; miniature CubeSats for education and research; and military/defense satellites.

Loading next visibility...
IRIDIUM 112 details
Identifier
41925, 2017-003J
Orbit
LEO
Last TLE update6 hours ago
Origin
Flag of USIridium (US)
ManufacturerOATK SSG Gilbert
MissionOperational Commercial Communications
Bus & MotorELITEBUS, Unknown motor
Mass860 kg wet, 700 kg dry
Launch date (UTC)
2017-01-14 (8 years ago)
Launch vehicle
FALCON 9
Launch site
Air Force Western Test Range (AFWTR)
Object type
Payload
Rocket body
Debris
Shape & HBRTrap Box + 2 Pan, 9.4 m
Radar Cross Section14.423 m², Large (>1 m²)

Expand to show TLE details & history

TLE from 6 hours ago
0 IRIDIUM 112
1 41925U 17003J   24361.28803417  .00000602  00000-0  20792-3 0  9992
2 41925  86.3964 313.0790 0002409  79.4953 280.6514 14.34218414416171
Epoch: 2024-12-26T06:54Z
Definitive object data (Epoch: 2024-12-26T06:54:46.152Z)
Latitude-0.00002°
Longitude114.11711°
Altitude780.398 km
Speed7.464 km/s
True Right ascension20h 52m 18s
True Declination0° 00' 00"
Sunlit
Object was in daylight at TLE epoch
Visualization TLE readout
Latitude-39.04375°
Longitude-63.07583°
Altitude793.972 km
Speed7.455 km/s
Apparent Right ascension05h 13m 39s
Apparent Declination-62° 57' 38"
Sunlit
Object is in daylight
Visualization observer readout
Local Sidereal Time12:18:48
Azimuth215.966° SW
Elevation-42.014°
Doppler factor1
Orbital elements
Apogee altitude776.353 km
Perigee altitude772.906 km
Semi-major axis7,152.766 km
Eccentricity0.0002409
Inclination86.3964°
RAAN313.079°
Arg. of periapsis79.4953°
True anomaly280.62427°
Mean anomaly280.6514°
Eccentric anomaly280.63783°
Mean motion3.58783 °/min
BSTAR0.00020792
Orbital period100.34 mins
Loading maneuver chart data...
Loading historical data...
Loading historical data...
Loading historical data...
Loading historical data...
Loading historical data...
Loading historical data...
Loading historical data...

IRIDIUM 112 Visibility forecast

Observer location: undefined°, undefined

Span
Click to sort rows by Start time (UTC) header in descending order
Start Az.
Max El. time (UTC)
Max El. Az.
Max El.
End time (UTC)
End Az.
6 mins2024-12-26 20:27:12.228Z115.99° SE2024-12-26 20:30:12.228Z75.575° E17.978°2024-12-26 20:33:12.228Z38.694° NE
7 mins2024-12-26 22:07:12.228Z213.801° SW2024-12-26 22:10:12.228Z276.168° WNW35.787°2024-12-26 22:14:12.228Z345.691° N
8 mins2024-12-27 08:37:12.228Z19.133° NNE2024-12-27 08:40:12.228Z68.62° E33.891°2024-12-27 08:45:12.228Z153.064° SSE
5 mins2024-12-27 10:19:12.228Z305.994° NW2024-12-27 10:21:12.228Z276.263° WNW19.083°2024-12-27 10:24:12.228Z237.628° WSW
|